Regional Weather Roundup
Issued by NWS

Home | Current Version | Previous Version | Graphics & Text | Print | Product List | Glossary On
Versions: 1 2 3 4 5 6 7 8 9 10 11 12 13 14 15 16 17 18 19 20 21 22 23 24 25 26 27 28 29 30 31 32 33 34 35 36 37 38 39 40 41 42 43 44 45 46 47 48 49 50
000
ASUS45 KCYS 291010
RWRWY

WYOMING REGIONAL WEATHER ROUNDUP
NATIONAL WEATHER SERVICE CHEYENNE WY
400 AM MDT MON JUN 29 2015

NOTE:  "FAIR" INDICATES FEW OR NO CLOUDS BELOW 12,000 FEET
WITH NO SIGNIFICANT WEATHER AND/OR OBSTRUCTIONS TO VISIBILITY.

WYZ001-291100-
YELLOWSTONE NATIONAL PARK

CITY           SKY/WX    TMP DP  RH WIND       PRES   REMARKS
LK YELLOWSTONE   N/A     47  43  86 CALM      30.45R
W YELLOWSTONE  NOT AVBL

$$
WYZ002>013-054>058-071-098>099-291100-
NORTHERN WYOMING

CITY           SKY/WX    TMP DP  RH WIND       PRES   REMARKS
JACKSON        FAIR      55  46  71 N5        30.32R
CODY           FAIR      66  48  52 SW8       30.21S
GREYBULL       FAIR      66  51  58 CALM      30.13R
WORLAND        FAIR      62  51  67 S7        30.14R
SHERIDAN       FAIR      61  50  67 CALM      30.10S
BUFFALO        FAIR      67  47  48 W12       30.17S
GILLETTE       FAIR      67  54  63 W13       30.09S
HULETT         FAIR      64  57  77 E8        30.12S
NEWCASTLE      FAIR      66  52  59 E6        30.12R

$$
WYZ014>020-022>026-101>103-291100-
CENTRAL WYOMING

CITY           SKY/WX    TMP DP  RH WIND       PRES   REMARKS
BIG PINEY      FAIR      53  44  71 E5        30.37S
PINEDALE       FAIR      50  46  87 W6        30.38S
DUBOIS         FAIR      52  43  71 NW9       30.38F
LANDER         FAIR      62  48  60 E3        30.23F
RIVERTON       FAIR      63  50  62 W10       30.23F
CASPER         FAIR      54  49  83 W7        30.20F
DOUGLAS        FAIR      56  51  84 CALM      30.18S

$$
WYZ021-027>030-104>119-291100-
SOUTHERN WYOMING

CITY           SKY/WX    TMP DP  RH WIND       PRES   REMARKS
EVANSTON       FAIR      67  41  38 E13       30.31S
KEMMERER       FAIR      61  41  48 N8        30.36S
FORT BRIDGER   SUNNY     66  43  42 E5        30.35F
ROCK SPRINGS   FAIR      64  41  42 E7        30.32F
DIXON          FAIR      57  45  64 E3        30.31S
RAWLINS        FAIR      54  44  69 N6        30.31F
SARATOGA       FAIR      54  46  76 CALM      30.34R
LARAMIE        FAIR      51  48  89 E6        30.34R
CHEYENNE       FAIR      62  51  67 W5        30.24F
TORRINGTON     FAIR      62  57  83 SE6       30.11F
PINE BLUFFS    PTSUNNY   63  55  77 CALM      30.18R

$$


USA.gov is the U.S. government's official web portal to all federal, state and local government web resources and services.